#datetime,building,power
2022-04-11T00:01:00,pth,3.60
2022-04-11T00:03:00,pth,2.40
2022-04-11T00:05:00,pth,3.60
2022-04-11T00:07:00,pth,2.40
2022-04-11T00:09:00,pth,3.60
2022-04-11T00:10:00,pth,2.40
2022-04-11T00:12:00,pth,4.80
2022-04-11T00:13:00,pth,1.20
2022-04-11T00:15:00,pth,2.40
2022-04-11T00:16:00,pth,2.40
2022-04-11T00:18:00,pth,2.40
2022-04-11T00:20:00,pth,3.60
2022-04-11T00:21:00,pth,1.20
2022-04-11T00:22:00,pth,1.20
2022-04-11T00:24:00,pth,2.40
2022-04-11T00:26:00,pth,2.40
2022-04-11T00:28:00,pth,3.60
2022-04-11T00:29:00,pth,1.20
2022-04-11T00:31:00,pth,2.40
2022-04-11T00:33:00,pth,3.60
2022-04-11T00:35:00,pth,2.40
2022-04-11T00:37:00,pth,2.40
2022-04-11T00:39:00,pth,3.60
2022-04-11T00:41:00,pth,2.40
2022-04-11T00:42:00,pth,1.20
2022-04-11T00:43:00,pth,1.20
2022-04-11T00:45:00,pth,2.40
2022-04-11T00:46:00,pth,1.20
2022-04-11T00:47:00,pth,2.40
2022-04-11T00:49:00,pth,2.40
2022-04-11T00:51:00,pth,2.40
2022-04-11T00:53:00,pth,3.60
2022-04-11T00:55:00,pth,2.40
2022-04-11T00:57:00,pth,2.40
2022-04-11T00:59:00,pth,2.40
2022-04-11T01:01:00,pth,2.40
2022-04-11T01:03:00,pth,2.40
2022-04-11T01:04:00,pth,1.20
2022-04-11T01:06:00,pth,2.40
2022-04-11T01:07:00,pth,2.40
2022-04-11T01:09:00,pth,2.40
2022-04-11T01:11:00,pth,2.40
2022-04-11T01:12:00,pth,1.20
2022-04-11T01:14:00,pth,2.40
2022-04-11T01:16:00,pth,2.40
2022-04-11T01:18:00,pth,2.40
2022-04-11T01:20:00,pth,2.40
2022-04-11T01:22:00,pth,2.40
2022-04-11T01:24:00,pth,2.40
2022-04-11T01:26:00,pth,2.40
2022-04-11T01:28:00,pth,2.40
2022-04-11T01:29:00,pth,1.20
2022-04-11T01:31:00,pth,2.40
2022-04-11T01:32:00,pth,1.20
2022-04-11T01:34:00,pth,2.40
2022-04-11T01:36:00,pth,2.40
2022-04-11T01:37:00,pth,1.20
2022-04-11T01:39:00,pth,2.40
2022-04-11T01:41:00,pth,2.40
2022-04-11T01:43:00,pth,2.40
2022-04-11T01:45:00,pth,2.40
2022-04-11T01:46:00,pth,2.40
2022-04-11T01:48:00,pth,2.40
2022-04-11T01:50:00,pth,2.40
2022-04-11T01:52:00,pth,2.40
2022-04-11T01:53:00,pth,1.20
2022-04-11T01:55:00,pth,2.40
2022-04-11T01:56:00,pth,1.20
2022-04-11T01:58:00,pth,2.40
2022-04-11T01:59:00,pth,1.20
2022-04-11T02:00:00,pth,1.20
2022-04-11T02:02:00,pth,2.40
2022-04-11T02:03:00,pth,1.20
2022-04-11T02:05:00,pth,2.40
2022-04-11T02:07:00,pth,2.40
2022-04-11T02:08:00,pth,1.20
2022-04-11T02:10:00,pth,2.40
2022-04-11T02:11:00,pth,1.20
2022-04-11T02:12:00,pth,1.20
2022-04-11T02:14:00,pth,2.40
2022-04-11T02:16:00,pth,2.40
2022-04-11T02:17:00,pth,1.20
2022-04-11T02:19:00,pth,2.40
2022-04-11T02:21:00,pth,2.40
2022-04-11T02:22:00,pth,1.20
2022-04-11T02:23:00,pth,1.20
2022-04-11T02:25:00,pth,2.40
2022-04-11T02:26:00,pth,1.20
2022-04-11T02:28:00,pth,2.40
2022-04-11T02:29:00,pth,1.20
2022-04-11T02:30:00,pth,1.20
2022-04-11T02:32:00,pth,1.20
2022-04-11T02:33:00,pth,1.20
2022-04-11T02:35:00,pth,2.40
2022-04-11T02:36:00,pth,1.20
2022-04-11T02:37:00,pth,1.20
2022-04-11T02:38:00,pth,1.20
2022-04-11T02:40:00,pth,1.20
2022-04-11T02:42:00,pth,2.40
2022-04-11T02:43:00,pth,1.20
2022-04-11T02:44:00,pth,1.20
2022-04-11T02:46:00,pth,2.40
2022-04-11T02:48:00,pth,2.40
2022-04-11T02:50:00,pth,1.20
2022-04-11T02:52:00,pth,3.60
2022-04-11T02:54:00,pth,1.20
2022-04-11T02:56:00,pth,2.40
2022-04-11T02:57:00,pth,1.20
2022-04-11T02:59:00,pth,2.40
2022-04-11T03:01:00,pth,2.40
2022-04-11T03:03:00,pth,1.20
2022-04-11T03:05:00,pth,2.40
2022-04-11T03:07:00,pth,2.40
2022-04-11T03:09:00,pth,2.40
2022-04-11T03:11:00,pth,2.40
2022-04-11T03:14:00,pth,2.40
2022-04-11T03:15:00,pth,1.20
2022-04-11T03:17:00,pth,2.40
2022-04-11T03:19:00,pth,2.40
2022-04-11T03:20:00,pth,1.20
2022-04-11T03:22:00,pth,2.40
2022-04-11T03:24:00,pth,2.40
2022-04-11T03:26:00,pth,2.40
2022-04-11T03:28:00,pth,2.40
2022-04-11T03:30:00,pth,2.40
2022-04-11T03:32:00,pth,3.60
2022-04-11T03:34:00,pth,2.40
2022-04-11T03:35:00,pth,1.20
2022-04-11T03:37:00,pth,2.40
2022-04-11T03:38:00,pth,1.20
2022-04-11T03:40:00,pth,2.40
2022-04-11T03:42:00,pth,3.60
2022-04-11T03:44:00,pth,2.40
2022-04-11T03:46:00,pth,3.60
2022-04-11T03:48:00,pth,2.40
2022-04-11T03:50:00,pth,2.40
2022-04-11T03:52:00,pth,2.40
2022-04-11T03:53:00,pth,1.20
2022-04-11T03:55:00,pth,2.40
2022-04-11T03:57:00,pth,2.40
2022-04-11T03:59:00,pth,2.40
2022-04-11T04:00:00,pth,1.20
2022-04-11T04:02:00,pth,3.60
2022-04-11T04:04:00,pth,2.40
2022-04-11T04:06:00,pth,2.40
2022-04-11T04:08:00,pth,2.40
2022-04-11T04:09:00,pth,1.20
2022-04-11T04:10:00,pth,1.20
2022-04-11T04:12:00,pth,2.40
2022-04-11T04:13:00,pth,1.20
2022-04-11T04:15:00,pth,2.40
2022-04-11T04:17:00,pth,2.40
2022-04-11T04:20:00,pth,2.40
2022-04-11T04:21:00,pth,1.20
2022-04-11T04:22:00,pth,1.20
2022-04-11T04:24:00,pth,2.40
2022-04-11T04:26:00,pth,1.20
2022-04-11T04:27:00,pth,1.20
2022-04-11T04:29:00,pth,2.40
2022-04-11T04:30:00,pth,1.20
2022-04-11T04:32:00,pth,2.40
2022-04-11T04:34:00,pth,2.40
2022-04-11T04:36:00,pth,2.40
2022-04-11T04:38:00,pth,2.40
2022-04-11T04:40:00,pth,2.40
2022-04-11T04:42:00,pth,2.40
2022-04-11T04:43:00,pth,1.20
2022-04-11T04:45:00,pth,2.40
2022-04-11T04:47:00,pth,2.40
2022-04-11T04:49:00,pth,2.40
2022-04-11T04:51:00,pth,2.40
2022-04-11T04:53:00,pth,2.40
2022-04-11T04:55:00,pth,2.40
2022-04-11T04:57:00,pth,1.20
2022-04-11T04:58:00,pth,1.20
2022-04-11T05:00:00,pth,2.40
2022-04-11T05:01:00,pth,1.20
2022-04-11T05:02:00,pth,1.20
2022-04-11T05:04:00,pth,2.40
2022-04-11T05:05:00,pth,1.20
2022-04-11T05:07:00,pth,2.40
2022-04-11T05:09:00,pth,2.40
2022-04-11T05:11:00,pth,2.40
2022-04-11T05:14:00,pth,2.40
2022-04-11T05:16:00,pth,2.40
2022-04-11T05:18:00,pth,2.40
2022-04-11T05:20:00,pth,2.40
2022-04-11T05:22:00,pth,2.40
2022-04-11T05:23:00,pth,1.20
2022-04-11T05:25:00,pth,2.40
2022-04-11T05:27:00,pth,2.40
2022-04-11T05:29:00,pth,2.40
2022-04-11T05:30:00,pth,1.20
2022-04-11T05:32:00,pth,2.40
2022-04-11T05:34:00,pth,2.40
2022-04-11T05:36:00,pth,2.40
2022-04-11T05:37:00,pth,1.20
2022-04-11T05:39:00,pth,2.40
2022-04-11T05:41:00,pth,2.40
2022-04-11T05:43:00,pth,2.40
2022-04-11T05:46:00,pth,2.40
2022-04-11T05:48:00,pth,2.40
2022-04-11T05:50:00,pth,2.40
2022-04-11T05:53:00,pth,2.40
2022-04-11T05:55:00,pth,2.40
2022-04-11T05:56:00,pth,1.20
2022-04-11T05:58:00,pth,1.20
2022-04-11T06:00:00,pth,2.40
2022-04-11T06:02:00,pth,2.40
2022-04-11T06:03:00,pth,1.20
2022-04-11T06:05:00,pth,2.40
2022-04-11T06:07:00,pth,2.40
2022-04-11T06:08:00,pth,1.20
2022-04-11T06:10:00,pth,1.20
2022-04-11T06:11:00,pth,1.20
2022-04-11T06:13:00,pth,2.40
2022-04-11T06:15:00,pth,2.40
2022-04-11T06:16:00,pth,1.20
2022-04-11T06:18:00,pth,2.40
2022-04-11T06:20:00,pth,1.20
2022-04-11T06:22:00,pth,2.40
2022-04-11T06:23:00,pth,1.20
2022-04-11T06:24:00,pth,1.20
2022-04-11T06:26:00,pth,2.40
2022-04-11T06:28:00,pth,2.40
2022-04-11T06:30:00,pth,2.40
2022-04-11T06:31:00,pth,2.40
2022-04-11T06:32:00,pth,1.20
2022-04-11T06:34:00,pth,2.40
2022-04-11T06:36:00,pth,2.40
2022-04-11T06:38:00,pth,2.40
2022-04-11T06:39:00,pth,1.20
2022-04-11T06:41:00,pth,2.40
2022-04-11T06:42:00,pth,1.20
2022-04-11T06:44:00,pth,2.40
2022-04-11T06:45:00,pth,1.20
2022-04-11T06:47:00,pth,2.40
2022-04-11T06:49:00,pth,2.40
2022-04-11T06:51:00,pth,1.20
2022-04-11T06:52:00,pth,1.20
2022-04-11T06:54:00,pth,2.40
2022-04-11T06:57:00,pth,2.40
2022-04-11T06:58:00,pth,1.20
2022-04-11T07:00:00,pth,1.20
2022-04-11T07:02:00,pth,2.40
2022-04-11T07:05:00,pth,2.40
2022-04-11T07:07:00,pth,1.20
2022-04-11T07:09:00,pth,2.40
2022-04-11T07:11:00,pth,1.20
2022-04-11T07:13:00,pth,1.20
2022-04-11T07:15:00,pth,2.40
2022-04-11T07:18:00,pth,2.40
2022-04-11T07:20:00,pth,1.20
2022-04-11T07:21:00,pth,1.20
2022-04-11T07:24:00,pth,2.40
2022-04-11T07:27:00,pth,2.40
2022-04-11T07:28:00,pth,1.20
2022-04-11T07:30:00,pth,1.20
2022-04-11T07:32:00,pth,2.40
2022-04-11T07:35:00,pth,2.40
2022-04-11T07:38:00,pth,2.40
2022-04-11T07:40:00,pth,2.40
2022-04-11T07:43:00,pth,2.40
2022-04-11T07:45:00,pth,1.20
2022-04-11T07:47:00,pth,1.20
2022-04-11T07:49:00,pth,1.20
2022-04-11T07:51:00,pth,2.40
2022-04-11T07:53:00,pth,1.20
2022-04-11T07:54:00,pth,1.20
2022-04-11T07:56:00,pth,1.20
2022-04-11T07:58:00,pth,1.20
2022-04-11T07:59:00,pth,1.20
2022-04-11T08:01:00,pth,1.20
2022-04-11T08:03:00,pth,1.20
2022-04-11T08:05:00,pth,2.40
2022-04-11T08:07:00,pth,1.20
2022-04-11T08:08:00,pth,1.20
2022-04-11T08:10:00,pth,1.20
2022-04-11T08:12:00,pth,3.60
2022-04-11T08:14:00,pth,4.80
2022-04-11T08:16:00,pth,2.40
2022-04-11T08:18:00,pth,1.20
2022-04-11T08:20:00,pth,2.40
2022-04-11T08:22:00,pth,1.20
2022-04-11T08:23:00,pth,1.20
2022-04-11T08:25:00,pth,1.20
2022-04-11T08:27:00,pth,1.20
2022-04-11T08:28:00,pth,1.20
2022-04-11T08:30:00,pth,2.40
2022-04-11T08:32:00,pth,1.20
2022-04-11T08:33:00,pth,1.20
2022-04-11T08:35:00,pth,1.20
2022-04-11T08:37:00,pth,1.20
2022-04-11T08:38:00,pth,1.20
2022-04-11T08:40:00,pth,1.20
2022-04-11T08:42:00,pth,1.20
2022-04-11T08:44:00,pth,2.40
2022-04-11T08:46:00,pth,1.20
2022-04-11T08:47:00,pth,1.20
2022-04-11T08:49:00,pth,1.20
2022-04-11T08:51:00,pth,1.20
2022-04-11T08:52:00,pth,1.20
2022-04-11T08:54:00,pth,1.20
2022-04-11T08:55:00,pth,1.20
2022-04-11T08:57:00,pth,1.20
2022-04-11T08:59:00,pth,1.20
2022-04-11T09:00:00,pth,1.20
2022-04-11T09:02:00,pth,1.20
2022-04-11T09:03:00,pth,1.20
2022-04-11T09:05:00,pth,1.20
2022-04-11T09:08:00,pth,1.20
2022-04-11T09:10:00,pth,2.40
2022-04-11T09:13:00,pth,2.40
2022-04-11T09:15:00,pth,1.20
2022-04-11T09:17:00,pth,1.20
2022-04-11T09:19:00,pth,2.40
2022-04-11T09:21:00,pth,1.20
2022-04-11T09:23:00,pth,2.40
2022-04-11T09:25:00,pth,1.20
2022-04-11T09:27:00,pth,2.40
2022-04-11T09:29:00,pth,3.60
2022-04-11T09:30:00,pth,2.40
2022-04-11T09:32:00,pth,2.40
2022-04-11T09:33:00,pth,1.20
2022-04-11T09:35:00,pth,2.40
2022-04-11T09:37:00,pth,2.40
2022-04-11T09:39:00,pth,1.20
2022-04-11T09:40:00,pth,1.20
2022-04-11T09:41:00,pth,1.20
2022-04-11T09:43:00,pth,2.40
2022-04-11T09:45:00,pth,1.20
2022-04-11T09:47:00,pth,2.40
2022-04-11T09:49:00,pth,1.20
2022-04-11T09:51:00,pth,2.40
2022-04-11T09:53:00,pth,2.40
2022-04-11T09:55:00,pth,2.40
2022-04-11T09:58:00,pth,2.40
2022-04-11T09:59:00,pth,2.40
2022-04-11T10:01:00,pth,1.20
2022-04-11T10:02:00,pth,1.20
2022-04-11T10:03:00,pth,1.20
2022-04-11T10:05:00,pth,2.40
2022-04-11T10:06:00,pth,1.20
2022-04-11T10:08:00,pth,2.40
2022-04-11T10:10:00,pth,3.60
2022-04-11T10:12:00,pth,3.60
2022-04-11T10:13:00,pth,1.20
2022-04-11T10:15:00,pth,4.80
2022-04-11T10:16:00,pth,1.20
2022-04-11T10:18:00,pth,1.20
2022-04-11T10:20:00,pth,2.40
2022-04-11T10:21:00,pth,1.20
2022-04-11T10:22:00,pth,1.20
2022-04-11T10:24:00,pth,1.20
2022-04-11T10:25:00,pth,1.20
2022-04-11T10:27:00,pth,1.20
2022-04-11T10:29:00,pth,2.40
2022-04-11T10:31:00,pth,1.20
2022-04-11T10:34:00,pth,1.20
2022-04-11T10:36:00,pth,2.40
2022-04-11T10:38:00,pth,2.40
2022-04-11T10:40:00,pth,1.20
2022-04-11T10:42:00,pth,2.40
2022-04-11T10:44:00,pth,1.20
2022-04-11T10:46:00,pth,2.40
2022-04-11T10:48:00,pth,3.60
2022-04-11T10:49:00,pth,2.40
2022-04-11T10:51:00,pth,2.40
2022-04-11T10:52:00,pth,1.20
2022-04-11T10:54:00,pth,2.40
2022-04-11T10:56:00,pth,1.20
2022-04-11T10:57:00,pth,1.20
2022-04-11T10:59:00,pth,1.20
2022-04-11T11:01:00,pth,2.40
2022-04-11T11:03:00,pth,1.20
2022-04-11T11:05:00,pth,2.40
2022-04-11T11:06:00,pth,1.20
2022-04-11T11:08:00,pth,1.20
2022-04-11T11:09:00,pth,1.20
2022-04-11T11:11:00,pth,2.40
2022-04-11T11:13:00,pth,2.40
2022-04-11T11:15:00,pth,2.40
2022-04-11T11:16:00,pth,1.20
2022-04-11T11:18:00,pth,2.40
2022-04-11T11:20:00,pth,1.20
2022-04-11T11:22:00,pth,2.40
2022-04-11T11:25:00,pth,2.40
2022-04-11T11:27:00,pth,1.20
2022-04-11T11:29:00,pth,1.20
2022-04-11T11:31:00,pth,2.40
2022-04-11T11:34:00,pth,2.40
2022-04-11T11:36:00,pth,1.20
2022-04-11T11:38:00,pth,1.20
2022-04-11T11:40:00,pth,2.40
2022-04-11T11:42:00,pth,4.80
2022-04-11T11:44:00,pth,2.40
2022-04-11T11:46:00,pth,2.40
2022-04-11T11:48:00,pth,2.40
2022-04-11T11:50:00,pth,2.40
2022-04-11T11:51:00,pth,1.20
2022-04-11T11:53:00,pth,1.20
2022-04-11T11:55:00,pth,2.40
2022-04-11T11:57:00,pth,1.20
2022-04-11T11:59:00,pth,1.20
2022-04-11T12:01:00,pth,2.40
2022-04-11T12:03:00,pth,1.20
2022-04-11T12:05:00,pth,1.20
2022-04-11T12:06:00,pth,1.20
2022-04-11T12:08:00,pth,1.20
2022-04-11T12:09:00,pth,1.20
2022-04-11T12:11:00,pth,2.40
2022-04-11T12:13:00,pth,1.20
2022-04-11T12:15:00,pth,2.40
2022-04-11T12:17:00,pth,2.40
2022-04-11T12:18:00,pth,1.20
2022-04-11T12:20:00,pth,1.20
2022-04-11T12:22:00,pth,1.20
2022-04-11T12:24:00,pth,2.40
2022-04-11T12:26:00,pth,1.20
2022-04-11T12:28:00,pth,1.20
2022-04-11T12:30:00,pth,1.20
2022-04-11T12:32:00,pth,1.20
2022-04-11T12:34:00,pth,1.20
2022-04-11T12:36:00,pth,2.40
2022-04-11T12:38:00,pth,1.20
2022-04-11T12:40:00,pth,2.40
2022-04-11T12:42:00,pth,1.20
2022-04-11T12:44:00,pth,2.40
2022-04-11T12:47:00,pth,2.40
2022-04-11T12:49:00,pth,1.20
2022-04-11T12:51:00,pth,1.20
2022-04-11T12:53:00,pth,2.40
2022-04-11T12:55:00,pth,1.20
2022-04-11T12:57:00,pth,2.40
2022-04-11T12:59:00,pth,1.20
2022-04-11T13:01:00,pth,1.20
2022-04-11T13:03:00,pth,1.20
2022-04-11T13:05:00,pth,2.40
2022-04-11T13:08:00,pth,2.40
2022-04-11T13:10:00,pth,1.20
2022-04-11T13:12:00,pth,2.40
2022-04-11T13:14:00,pth,1.20
2022-04-11T13:16:00,pth,1.20
2022-04-11T13:18:00,pth,2.40
2022-04-11T13:20:00,pth,1.20
2022-04-11T13:22:00,pth,1.20
2022-04-11T13:24:00,pth,2.40
2022-04-11T13:26:00,pth,1.20
2022-04-11T13:28:00,pth,2.40
2022-04-11T13:30:00,pth,1.20
2022-04-11T13:31:00,pth,1.20
2022-04-11T13:33:00,pth,2.40
2022-04-11T13:35:00,pth,1.20
2022-04-11T13:37:00,pth,1.20
2022-04-11T13:38:00,pth,1.20
2022-04-11T13:40:00,pth,1.20
2022-04-11T13:42:00,pth,1.20
2022-04-11T13:43:00,pth,1.20
2022-04-11T13:45:00,pth,1.20
2022-04-11T13:46:00,pth,1.20
2022-04-11T13:48:00,pth,1.20
2022-04-11T13:50:00,pth,2.40
2022-04-11T13:53:00,pth,2.40
2022-04-11T13:55:00,pth,1.20
2022-04-11T13:56:00,pth,1.20
2022-04-11T13:57:00,pth,1.20
2022-04-11T13:59:00,pth,1.20
2022-04-11T14:00:00,pth,1.20
2022-04-11T14:02:00,pth,1.20
2022-04-11T14:03:00,pth,1.20
2022-04-11T14:05:00,pth,1.20
2022-04-11T14:07:00,pth,2.40
2022-04-11T14:09:00,pth,1.20
2022-04-11T14:11:00,pth,2.40
2022-04-11T14:13:00,pth,2.40
2022-04-11T14:15:00,pth,1.20
2022-04-11T14:16:00,pth,1.20
2022-04-11T14:18:00,pth,2.40
2022-04-11T14:19:00,pth,1.20
2022-04-11T14:21:00,pth,2.40
2022-04-11T14:22:00,pth,1.20
2022-04-11T14:24:00,pth,2.40
2022-04-11T14:26:00,pth,2.40
2022-04-11T14:28:00,pth,2.40
2022-04-11T14:29:00,pth,1.20
2022-04-11T14:31:00,pth,1.20
2022-04-11T14:33:00,pth,2.40
2022-04-11T14:35:00,pth,3.60
2022-04-11T14:37:00,pth,2.40
2022-04-11T14:38:00,pth,1.20
2022-04-11T14:39:00,pth,1.20
2022-04-11T14:41:00,pth,1.20
2022-04-11T14:42:00,pth,1.20
2022-04-11T14:44:00,pth,3.60
2022-04-11T14:46:00,pth,2.40
2022-04-11T14:48:00,pth,1.20
2022-04-11T14:50:00,pth,1.20
2022-04-11T14:52:00,pth,2.40
2022-04-11T14:54:00,pth,2.40
2022-04-11T14:56:00,pth,1.20
2022-04-11T14:57:00,pth,1.20
2022-04-11T14:58:00,pth,1.20
2022-04-11T15:00:00,pth,1.20
2022-04-11T15:03:00,pth,2.40
2022-04-11T15:04:00,pth,1.20
2022-04-11T15:06:00,pth,1.20
2022-04-11T15:07:00,pth,1.20
2022-04-11T15:09:00,pth,2.40
2022-04-11T15:12:00,pth,2.40
2022-04-11T15:14:00,pth,2.40
2022-04-11T15:16:00,pth,1.20
2022-04-11T15:17:00,pth,1.20
2022-04-11T15:19:00,pth,2.40
2022-04-11T15:20:00,pth,1.20
2022-04-11T15:21:00,pth,1.20
2022-04-11T15:23:00,pth,2.40
2022-04-11T15:25:00,pth,1.20
2022-04-11T15:28:00,pth,2.40
2022-04-11T15:30:00,pth,1.20
2022-04-11T15:32:00,pth,1.20
2022-04-11T15:34:00,pth,2.40
2022-04-11T15:35:00,pth,1.20
2022-04-11T15:37:00,pth,1.20
2022-04-11T15:39:00,pth,1.20
2022-04-11T15:40:00,pth,1.20
2022-04-11T15:42:00,pth,1.20
2022-04-11T15:43:00,pth,2.40
2022-04-11T15:45:00,pth,3.60
2022-04-11T15:46:00,pth,1.20
2022-04-11T15:47:00,pth,1.20
2022-04-11T15:48:00,pth,1.20
2022-04-11T15:50:00,pth,7.20
2022-04-11T15:52:00,pth,6.00
2022-04-11T15:54:00,pth,4.80
2022-04-11T15:57:00,pth,2.40
2022-04-11T15:59:00,pth,1.20
2022-04-11T16:01:00,pth,2.40
2022-04-11T16:03:00,pth,1.20
2022-04-11T16:05:00,pth,2.40
2022-04-11T16:07:00,pth,2.40
2022-04-11T16:08:00,pth,1.20
2022-04-11T16:10:00,pth,1.20
2022-04-11T16:12:00,pth,4.80
2022-04-11T16:14:00,pth,2.40
2022-04-11T16:17:00,pth,2.40
2022-04-11T16:19:00,pth,1.20
2022-04-11T16:20:00,pth,1.20
2022-04-11T16:21:00,pth,1.20
2022-04-11T16:23:00,pth,1.20
2022-04-11T16:25:00,pth,2.40
2022-04-11T16:27:00,pth,3.60
2022-04-11T16:29:00,pth,1.20
2022-04-11T16:31:00,pth,2.40
2022-04-11T16:33:00,pth,1.20
2022-04-11T16:35:00,pth,2.40
2022-04-11T16:37:00,pth,1.20
2022-04-11T16:39:00,pth,2.40
2022-04-11T16:42:00,pth,2.40
2022-04-11T16:44:00,pth,1.20
2022-04-11T16:45:00,pth,1.20
2022-04-11T16:47:00,pth,1.20
2022-04-11T16:48:00,pth,1.20
2022-04-11T16:50:00,pth,2.40
2022-04-11T16:52:00,pth,2.40
2022-04-11T16:54:00,pth,1.20
2022-04-11T16:56:00,pth,2.40
2022-04-11T16:59:00,pth,2.40
2022-04-11T17:01:00,pth,1.20
2022-04-11T17:03:00,pth,1.20
2022-04-11T17:05:00,pth,1.20
2022-04-11T17:06:00,pth,1.20
2022-04-11T17:08:00,pth,2.40
2022-04-11T17:10:00,pth,1.20
2022-04-11T17:11:00,pth,1.20
2022-04-11T17:13:00,pth,1.20
2022-04-11T17:15:00,pth,2.40
2022-04-11T17:17:00,pth,1.20
2022-04-11T17:19:00,pth,1.20
2022-04-11T17:21:00,pth,2.40
2022-04-11T17:23:00,pth,1.20
2022-04-11T17:25:00,pth,1.20
2022-04-11T17:27:00,pth,2.40
2022-04-11T17:29:00,pth,1.20
2022-04-11T17:31:00,pth,2.40
2022-04-11T17:33:00,pth,1.20
2022-04-11T17:35:00,pth,2.40
2022-04-11T17:36:00,pth,1.20
2022-04-11T17:38:00,pth,1.20
2022-04-11T17:40:00,pth,2.40
2022-04-11T17:41:00,pth,1.20
2022-04-11T17:43:00,pth,1.20
2022-04-11T17:45:00,pth,2.40
2022-04-11T17:47:00,pth,1.20
2022-04-11T17:48:00,pth,1.20
2022-04-11T17:50:00,pth,1.20
2022-04-11T17:51:00,pth,1.20
2022-04-11T17:53:00,pth,1.20
2022-04-11T17:55:00,pth,2.40
2022-04-11T17:57:00,pth,1.20
2022-04-11T17:58:00,pth,1.20
2022-04-11T18:00:00,pth,2.40
2022-04-11T18:02:00,pth,1.20
2022-04-11T18:04:00,pth,2.40
2022-04-11T18:06:00,pth,1.20
2022-04-11T18:08:00,pth,1.20
2022-04-11T18:09:00,pth,1.20
2022-04-11T18:11:00,pth,1.20
2022-04-11T18:13:00,pth,1.20
2022-04-11T18:15:00,pth,1.20
2022-04-11T18:17:00,pth,2.40
2022-04-11T18:19:00,pth,1.20
2022-04-11T18:20:00,pth,1.20
2022-04-11T18:22:00,pth,1.20
2022-04-11T18:24:00,pth,2.40
2022-04-11T18:26:00,pth,1.20
2022-04-11T18:28:00,pth,1.20
2022-04-11T18:30:00,pth,2.40
2022-04-11T18:31:00,pth,1.20
2022-04-11T18:33:00,pth,2.40
2022-04-11T18:34:00,pth,1.20
2022-04-11T18:36:00,pth,1.20
2022-04-11T18:37:00,pth,1.20
2022-04-11T18:39:00,pth,1.20
2022-04-11T18:40:00,pth,1.20
2022-04-11T18:42:00,pth,1.20
2022-04-11T18:43:00,pth,1.20
2022-04-11T18:45:00,pth,1.20
2022-04-11T18:46:00,pth,1.20
2022-04-11T18:49:00,pth,1.20
2022-04-11T18:51:00,pth,1.20
2022-04-11T18:52:00,pth,1.20
2022-04-11T18:53:00,pth,1.20
2022-04-11T18:55:00,pth,1.20
2022-04-11T18:57:00,pth,1.20
2022-04-11T18:59:00,pth,3.60
2022-04-11T19:00:00,pth,1.20
2022-04-11T19:01:00,pth,1.20
2022-04-11T19:03:00,pth,2.40
2022-04-11T19:05:00,pth,1.20
2022-04-11T19:07:00,pth,2.40
2022-04-11T19:08:00,pth,1.20
2022-04-11T19:10:00,pth,2.40
2022-04-11T19:12:00,pth,2.40
2022-04-11T19:14:00,pth,4.80
2022-04-11T19:16:00,pth,4.80
2022-04-11T19:18:00,pth,4.80
2022-04-11T19:20:00,pth,3.60
2022-04-11T19:22:00,pth,2.40
2022-04-11T19:23:00,pth,1.20
2022-04-11T19:24:00,pth,1.20
2022-04-11T19:26:00,pth,1.20
2022-04-11T19:27:00,pth,1.20
2022-04-11T19:28:00,pth,1.20
2022-04-11T19:30:00,pth,2.40
2022-04-11T19:32:00,pth,1.20
2022-04-11T19:34:00,pth,3.60
2022-04-11T19:35:00,pth,1.20
2022-04-11T19:37:00,pth,2.40
2022-04-11T19:39:00,pth,2.40
2022-04-11T19:40:00,pth,1.20
2022-04-11T19:42:00,pth,3.60
2022-04-11T19:43:00,pth,1.20
2022-04-11T19:44:00,pth,1.20
2022-04-11T19:46:00,pth,2.40
2022-04-11T19:47:00,pth,1.20
2022-04-11T19:49:00,pth,2.40
2022-04-11T19:51:00,pth,3.60
2022-04-11T19:52:00,pth,1.20
2022-04-11T19:54:00,pth,3.60
2022-04-11T19:55:00,pth,2.40
2022-04-11T19:57:00,pth,2.40
2022-04-11T19:59:00,pth,2.40
2022-04-11T20:00:00,pth,1.20
2022-04-11T20:01:00,pth,1.20
2022-04-11T20:03:00,pth,2.40
2022-04-11T20:05:00,pth,2.40
2022-04-11T20:06:00,pth,1.20
2022-04-11T20:08:00,pth,2.40
2022-04-11T20:10:00,pth,2.40
2022-04-11T20:11:00,pth,1.20
2022-04-11T20:13:00,pth,2.40
2022-04-11T20:14:00,pth,1.20
2022-04-11T20:16:00,pth,2.40
2022-04-11T20:17:00,pth,1.20
2022-04-11T20:19:00,pth,2.40
2022-04-11T20:21:00,pth,2.40
2022-04-11T20:23:00,pth,3.60
2022-04-11T20:25:00,pth,2.40
2022-04-11T20:27:00,pth,2.40
2022-04-11T20:29:00,pth,2.40
2022-04-11T20:31:00,pth,2.40
2022-04-11T20:32:00,pth,1.20
2022-04-11T20:34:00,pth,2.40
2022-04-11T20:35:00,pth,1.20
2022-04-11T20:36:00,pth,1.20
2022-04-11T20:38:00,pth,2.40
2022-04-11T20:40:00,pth,2.40
2022-04-11T20:42:00,pth,2.40
2022-04-11T20:43:00,pth,1.20
2022-04-11T20:45:00,pth,2.40
2022-04-11T20:47:00,pth,2.40
2022-04-11T20:49:00,pth,2.40
2022-04-11T20:50:00,pth,1.20
2022-04-11T20:52:00,pth,2.40
2022-04-11T20:54:00,pth,2.40
2022-04-11T20:55:00,pth,1.20
2022-04-11T20:57:00,pth,2.40
2022-04-11T20:59:00,pth,2.40
2022-04-11T21:01:00,pth,2.40
2022-04-11T21:02:00,pth,1.20
2022-04-11T21:04:00,pth,2.40
2022-04-11T21:06:00,pth,2.40
2022-04-11T21:08:00,pth,1.20
2022-04-11T21:09:00,pth,1.20
2022-04-11T21:11:00,pth,2.40
2022-04-11T21:12:00,pth,1.20
2022-04-11T21:14:00,pth,3.60
2022-04-11T21:15:00,pth,1.20
2022-04-11T21:17:00,pth,2.40
2022-04-11T21:18:00,pth,1.20
2022-04-11T21:19:00,pth,1.20
2022-04-11T21:21:00,pth,2.40
2022-04-11T21:22:00,pth,1.20
2022-04-11T21:24:00,pth,2.40
2022-04-11T21:25:00,pth,1.20
2022-04-11T21:27:00,pth,12.00
2022-04-11T21:29:00,pth,14.40
2022-04-11T21:31:00,pth,14.40
2022-04-11T21:33:00,pth,13.20
2022-04-11T21:34:00,pth,7.20
2022-04-11T21:36:00,pth,14.40
2022-04-11T21:37:00,pth,6.00
2022-04-11T21:38:00,pth,7.20
2022-04-11T21:40:00,pth,14.40
2022-04-11T21:41:00,pth,6.00
2022-04-11T21:42:00,pth,7.20
2022-04-11T21:43:00,pth,6.00
2022-04-11T21:45:00,pth,14.40
2022-04-11T21:46:00,pth,6.00
2022-04-11T21:48:00,pth,14.40
2022-04-11T21:50:00,pth,13.20
2022-04-11T21:51:00,pth,7.20
2022-04-11T21:53:00,pth,13.20
2022-04-11T21:54:00,pth,7.20
2022-04-11T21:56:00,pth,13.20
2022-04-11T21:57:00,pth,7.20
2022-04-11T21:59:00,pth,14.40
2022-04-11T22:01:00,pth,13.20
2022-04-11T22:02:00,pth,7.20
2022-04-11T22:03:00,pth,7.20
2022-04-11T22:05:00,pth,13.20
2022-04-11T22:07:00,pth,13.20
2022-04-11T22:08:00,pth,7.20
2022-04-11T22:10:00,pth,14.40
2022-04-11T22:12:00,pth,13.20
2022-04-11T22:13:00,pth,7.20
2022-04-11T22:15:00,pth,14.40
2022-04-11T22:17:00,pth,15.60
2022-04-11T22:19:00,pth,14.40
2022-04-11T22:21:00,pth,8.40
2022-04-11T22:23:00,pth,3.60
2022-04-11T22:25:00,pth,3.60
2022-04-11T22:26:00,pth,1.20
2022-04-11T22:28:00,pth,3.60
2022-04-11T22:30:00,pth,4.80
2022-04-11T22:32:00,pth,6.00
2022-04-11T22:33:00,pth,2.40
2022-04-11T22:35:00,pth,4.80
2022-04-11T22:37:00,pth,6.00
2022-04-11T22:39:00,pth,2.40
2022-04-11T22:40:00,pth,1.20
2022-04-11T22:42:00,pth,3.60
2022-04-11T22:44:00,pth,2.40
2022-04-11T22:46:00,pth,2.40
2022-04-11T22:47:00,pth,1.20
2022-04-11T22:49:00,pth,2.40
2022-04-11T22:51:00,pth,3.60
2022-04-11T22:53:00,pth,2.40
2022-04-11T22:54:00,pth,1.20
2022-04-11T22:56:00,pth,2.40
2022-04-11T22:57:00,pth,2.40
2022-04-11T22:58:00,pth,1.20
2022-04-11T23:00:00,pth,3.60
2022-04-11T23:02:00,pth,2.40
2022-04-11T23:04:00,pth,3.60
2022-04-11T23:06:00,pth,3.60
2022-04-11T23:08:00,pth,3.60
2022-04-11T23:09:00,pth,1.20
2022-04-11T23:11:00,pth,3.60
2022-04-11T23:13:00,pth,2.40
2022-04-11T23:15:00,pth,2.40
2022-04-11T23:16:00,pth,2.40
2022-04-11T23:18:00,pth,2.40
2022-04-11T23:20:00,pth,2.40
2022-04-11T23:21:00,pth,1.20
2022-04-11T23:23:00,pth,3.60
2022-04-11T23:25:00,pth,2.40
2022-04-11T23:27:00,pth,2.40
2022-04-11T23:28:00,pth,1.20
2022-04-11T23:30:00,pth,2.40
2022-04-11T23:32:00,pth,2.40
2022-04-11T23:34:00,pth,3.60
2022-04-11T23:35:00,pth,1.20
2022-04-11T23:36:00,pth,1.20
2022-04-11T23:38:00,pth,2.40
2022-04-11T23:40:00,pth,2.40
2022-04-11T23:42:00,pth,2.40
2022-04-11T23:43:00,pth,1.20
2022-04-11T23:45:00,pth,3.60
2022-04-11T23:46:00,pth,1.20
2022-04-11T23:48:00,pth,2.40
2022-04-11T23:50:00,pth,2.40
